[[{"header":{"parameterUnit":"m.s-1","parameterCategory":1,"la1":30.2991,"la2":30.254,"lo1":-89.0895,"lo2":-89.0444,"dy":0.0017,"dx":0.0017,"nx":28,"ny":28,"refTime":"2024-02-28T09:00:00:Z","depth":0,"parameterNumber":2,"parameterNumberName":"U-component_of_WINDS"},"data":[0,0,0,0,0,0,0,0,0,0,0,0,0,0,0,0,0,0,0,0,0,0,0,0,0,0,0,0,0,0,0,0,0,0,0,0,0,0,0,0,0,0,0,0,0,0,0,0,0,0,0,0,0,0,0,0,0,0,1.1001,1.1001,0,1.1001,1.1001,1.1001,1.0983,1.0982,1.0982,1.0981,1.0982,1.0982,1.0983,0,0,0,0,0,0,0,0,0,0,0,0,0,1.0985,1.0986,1.1001,1.1001,1.1001,1.1001,1.1001,1.1001,1.0983,1.0982,1.0982,1.0981,1.0982,1.0982,1.0983,0,0,0,0,0,0,0,0,0,0,0,0,0,1.0989,1.0986,1.1001,1.0992,1.0991,1.1001,1.1001,1.1001,1.0983,1.0982,1.0981,1.0981,1.0981,1.0982,1.0983,1.1001,0,0,1.0985,1.0985,0,0,0,0,0,0,0,0,1.0989,1.099,1.0993,1.0992,1.0991,1.0991,1.0996,1.1001,1.0983,1.0986,1.0981,1.098,1.0985,1.0986,1.0987,1.1001,1.1001,1.0985,1.0985,1.0986,1.0986,0,0,0,0,0,0,0,1.0989,1.099,1.1001,1.0993,1.0992,1.0988,1.0988,1.0997,1.099,1.0986,1.0984,1.0985,1.0985,1.0987,1.0987,1.1001,1.0985,1.0986,1.0986,1.0986,1.1032,1.1033,0,0,0,0,0,0,1.099,1.099,1.1001,1.1001,1.0988,1.0989,1.0988,1.0992,1.099,1.0989,1.0985,1.0984,1.0986,1.0986,1.0987,1.101,1.0986,1.0986,1.0987,1.1031,1.1032,1.1033,0,0,0,0,0,0,1.099,1.0991,1.1001,1.0995,1.0996,1.099,1.0994,1.0992,1.0994,1.0989,1.0988,1.0988,1.0985,1.0986,1.0998,1.1009,1.0987,1.0987,1.103,1.1031,1.1033,1.1054,0,0,0,0,0,0,1.0989,1.0991,1.0998,1.0995,1.0996,1.1012,1.0994,1.0993,1.0995,1.0993,1.0992,1.0991,1.0985,1.0997,1.0999,1.101,1.0988,1.1029,1.1031,1.1032,1.1053,1.1056,1.1059,0,0,0,0,0,1.0989,1.1004,1.0998,1.1,1.1005,1.1012,1.1013,1.1006,1.0996,1.1003,1.1,1.0991,1.1008,1.0999,1.1,1.1012,1.1028,1.103,1.1032,1.1051,1.1056,1.1059,0,0,0,0,0,0,1.1008,1.1003,1.0997,1.1012,1.1013,1.1009,1.1018,1.101,1.1014,1.1012,1.1003,1.1002,1.1016,1.1015,1.1005,1.103,1.1017,1.1019,1.1031,1.1035,1.1038,1.1038,1.0988,0,0,0,0,0,1.1014,1.102,1.1016,1.1029,1.103,1.1024,1.1027,1.1021,1.1022,1.1022,1.102,1.1021,1.1026,1.103,1.1035,1.1052,1.1052,1.1061,1.1064,1.1067,1.1069,1.1079,1.1084,1.1039,1.1039,1.1039,0,0,1.1026,1.1024,1.1029,1.1033,1.1033,1.104,1.1024,1.1032,1.1038,1.1023,1.1035,1.1033,1.1034,1.1049,1.1055,1.1048,1.1082,1.1069,1.1072,1.1072,1.1082,1.1086,1.109,1.104,1.104,1.104,0,0,1.1052,1.1051,1.1063,1.1063,1.1063,1.1059,1.1062,1.106,1.1059,1.107,1.106,1.1066,1.1075,1.1077,1.1078,1.1106,1.1098,1.1108,1.1125,1.1135,1.1139,1.1142,1.1153,1.1156,1.111,1.111,1.111,0,1.1067,1.1078,1.1069,1.1079,1.1081,1.1068,1.108,1.1081,1.1083,1.1085,1.1077,1.109,1.1089,1.1105,1.1112,1.1113,1.1117,1.1108,1.1139,1.1142,1.1145,1.1155,1.1159,1.1111,1.1111,1.1111,1.1111,0,1.1097,1.1104,1.1114,1.1116,1.112,1.113,1.1124,1.1128,1.1123,1.112,1.1132,1.1131,1.1136,1.1139,1.1133,1.1154,1.115,1.114,1.1126,1.115,1.116,1.1163,1.1113,1.1113,1.1112,1.1112,0,0,1.1135,1.1133,1.1137,1.1138,1.1138,1.1144,1.1154,1.1159,1.1164,1.1165,1.1174,1.1183,1.1175,1.1177,1.1171,1.118,1.1203,1.1169,1.1169,1.1177,1.1227,1.1235,1.1239,1.1197,1.1198,1.1198,1.1227,0,1.1161,1.1179,1.1172,1.119,1.1197,1.1186,1.1195,1.1196,1.1193,1.1199,1.1197,1.1203,1.1191,1.1193,1.1201,1.1198,1.1213,1.1196,1.1206,1.1206,1.1207,1.1244,1.1252,1.1279,1.1231,1.1231,1.1232,0,1.1194,1.1198,1.1217,1.1216,1.1219,1.1227,1.1232,1.1237,1.1239,1.1236,1.1239,1.1232,1.1242,1.1228,1.1243,1.1231,1.1235,1.1235,1.1235,1.1237,1.1221,1.1247,1.1287,1.1292,1.1237,1.1237,1.1236,0,1.1221,1.1231,1.1244,1.1245,1.1244,1.1251,1.1251,1.1251,1.1255,1.1259,1.1261,1.1266,1.1269,1.1273,1.1268,1.1258,1.1284,1.1269,1.1283,1.1283,1.1289,1.1289,1.1332,1.129,1.129,1.129,1.129,0,1.1252,1.1264,1.1256,1.1264,1.1278,1.127,1.1284,1.1283,1.1283,1.1291,1.1281,1.1289,1.128,1.1287,1.1283,1.1297,1.1298,1.1297,1.1295,1.1298,1.1298,1.1301,1.1299,1.1291,1.1291,1.1291,1.129,0,1.1284,1.1279,1.1293,1.1291,1.1291,1.1302,1.1301,1.1308,1.1305,1.1315,1.1317,1.1313,1.1321,1.1315,1.1323,1.132,1.1338,1.1334,1.1338,1.1337,1.1352,1.1351,1.1398,1.1404,1.1358,1.1358,1.1359,0,1.1304,1.1314,1.1314,1.1318,1.1319,1.1326,1.133,1.1323,1.1328,1.133,1.1338,1.1345,1.135,1.1363,1.1361,1.1367,1.1363,1.138,1.1364,1.1367,1.1365,1.1365,1.1366,1.1383,1.1383,1.1384,1.1384,0,1.1341,1.1338,1.1344,1.135,1.1355,1.1359,1.1362,1.1366,1.1359,1.1365,1.1373,1.1377,1.1385,1.1393,1.1398,1.1398,1.1391,1.1389,1.1393,1.1396,1.1398,1.1398,1.1347,1.1388,1.1388,1.1387,1.1387,1.1387,1.1369,1.1377,1.1378,1.1386,1.1387,1.1391,1.1398,1.1396,1.1403,1.1409,1.1405,1.1415,1.1416,1.1423,1.1424,1.1432,1.1425,1.143,1.1432,1.1434,1.1436,1.1396,1.1433,1.1432,1.1432,1.1432,1.1432,0,1.1405,1.1406,1.1413,1.1418,1.1424,1.1416,1.1419,1.1425,1.1434,1.1436,1.1442,1.1451,1.1459,1.1457,1.1464,1.1471,1.1467,1.1473,1.1473,1.1473,1.1441,1.1438,1.1475,1.1475,1.1475,1.1475,1.1475,1.1475,1.1425,1.1439,1.1437,1.1452,1.1452,1.1462,1.1465,1.1468,1.147,1.1481,1.1488,1.1486,1.1487,1.1494,1.1501,1.15,1.1504,1.1511,1.1509,1.1479,1.1475,1.1471,1.1468,1.1511,1.1511,1.154,1.1541,1.1541]},{"header":{"parameterUnit":"m.s-1","parameterCategory":1,"la1":30.2991,"la2":30.254,"lo1":-89.0895,"lo2":-89.0444,"dy":0.0017,"dx":0.0017,"nx":28,"ny":28,"refTime":"2024-02-28T09:00:00:Z","depth":0,"parameterNumber":3,"parameterNumberName":"V-component_of_WINDS"},"data":[0,0,0,0,0,0,0,0,0,0,0,0,0,0,0,0,0,0,0,0,0,0,0,0,0,0,0,0,0,0,0,0,0,0,0,0,0,0,0,0,0,0,0,0,0,0,0,0,0,0,0,0,0,0,0,0,0,0,4.0378,4.0379,0,4.0413,4.0413,4.0414,4.0401,4.0401,4.04,4.0399,4.0431,4.0432,4.0434,0,0,0,0,0,0,0,0,0,0,0,0,0,4.0299,4.03,4.0378,4.0379,4.0379,4.0413,4.0413,4.0414,4.0402,4.0401,4.04,4.0399,4.043,4.0432,4.0434,0,0,0,0,0,0,0,0,0,0,0,0,0,4.0333,4.0301,4.0378,4.0377,4.0378,4.0413,4.0413,4.0414,4.0402,4.0401,4.0399,4.0398,4.043,4.0432,4.0434,4.0472,0,0,4.0441,4.0442,0,0,0,0,0,0,0,0,4.0331,4.0336,4.0377,4.0377,4.0378,4.0402,4.0397,4.0433,4.0402,4.0392,4.0399,4.0398,4.0422,4.0425,4.0434,4.0473,4.0474,4.0442,4.0443,4.0444,4.0445,0,0,0,0,0,0,0,4.0329,4.0335,4.0392,4.0378,4.0378,4.0374,4.0378,4.0404,4.0413,4.0393,4.0392,4.0397,4.0422,4.0431,4.0434,4.0475,4.0442,4.0444,4.0445,4.0446,4.0548,4.0549,0,0,0,0,0,0,4.0327,4.0333,4.0391,4.0393,4.0351,4.0377,4.0381,4.0395,4.0413,4.0414,4.0398,4.0396,4.0428,4.0432,4.0435,4.0482,4.0444,4.0446,4.0448,4.0547,4.0548,4.055,0,0,0,0,0,0,4.0325,4.0332,4.0389,4.0363,4.037,4.0379,4.0396,4.0396,4.0406,4.0416,4.0418,4.0406,4.0427,4.0432,4.0463,4.0483,4.0447,4.0449,4.0545,4.0547,4.0549,4.0574,0,0,0,0,0,0,4.0323,4.0332,4.0347,4.0363,4.0371,4.0418,4.0397,4.0398,4.0411,4.0409,4.0424,4.0426,4.0427,4.046,4.0466,4.0485,4.0451,4.0544,4.0546,4.0549,4.0571,4.0576,4.0581,0,0,0,0,0,4.032,4.0351,4.0347,4.0354,4.039,4.0419,4.0423,4.0425,4.0412,4.0427,4.0434,4.0425,4.0479,4.0463,4.047,4.049,4.0542,4.0546,4.0548,4.0569,4.0575,4.0581,0,0,0,0,0,0,4.0334,4.0353,4.0349,4.0386,4.0401,4.0417,4.0435,4.0431,4.0449,4.0446,4.0446,4.045,4.0482,4.0489,4.0471,4.0528,4.0509,4.0513,4.0523,4.0529,4.0533,4.0531,4.0453,0,0,0,0,0,4.0342,4.0365,4.0379,4.0411,4.0419,4.0426,4.0438,4.0438,4.0453,4.0459,4.0468,4.0482,4.0502,4.0515,4.0534,4.0572,4.0576,4.0589,4.0594,4.0598,4.0602,4.0624,4.063,4.056,4.056,4.056,0,0,4.0358,4.0371,4.0385,4.0414,4.0426,4.0449,4.0431,4.0456,4.0473,4.0462,4.0494,4.05,4.0516,4.0551,4.0567,4.0558,4.0622,4.0601,4.0604,4.0607,4.0628,4.0634,4.064,4.0562,4.0561,4.0561,0,0,4.0399,4.041,4.0439,4.0451,4.047,4.0475,4.0482,4.0498,4.0503,4.0534,4.0527,4.0547,4.0581,4.0594,4.0604,4.0651,4.0645,4.0657,4.0682,4.0703,4.0709,4.0714,4.0732,4.0739,4.0661,4.0661,4.0661,0,4.0415,4.0451,4.0453,4.048,4.0493,4.0486,4.0515,4.0527,4.055,4.0559,4.0548,4.0593,4.0602,4.0641,4.0653,4.0661,4.0669,4.0656,4.0708,4.0713,4.0718,4.0735,4.0742,4.0662,4.0662,4.0662,4.0662,0,4.0472,4.0497,4.0517,4.0543,4.0558,4.0585,4.0591,4.0606,4.0605,4.0611,4.0643,4.0655,4.0677,4.0686,4.0684,4.0725,4.0719,4.0708,4.0689,4.0726,4.0743,4.0749,4.0665,4.0664,4.0664,4.0663,0,0,4.0523,4.055,4.0558,4.057,4.059,4.0609,4.0636,4.0659,4.0673,4.0689,4.0712,4.0742,4.0733,4.0745,4.0745,4.0763,4.0802,4.0751,4.0751,4.0761,4.0849,4.0859,4.0866,4.0797,4.0799,4.0799,4.0849,0,4.0567,4.0616,4.062,4.0664,4.0688,4.0682,4.0706,4.072,4.0727,4.0747,4.0753,4.0775,4.0761,4.0768,4.0786,4.0794,4.082,4.079,4.0819,4.082,4.0817,4.0875,4.0884,4.093,4.0855,4.0856,4.0857,0,4.0625,4.0646,4.0693,4.0712,4.0722,4.0744,4.0766,4.0785,4.0802,4.0805,4.082,4.0817,4.0844,4.0824,4.0862,4.0841,4.0853,4.0859,4.086,4.0864,4.0842,4.0882,4.0944,4.0952,4.0867,4.0866,4.0865,0,4.066,4.0699,4.0733,4.0743,4.0765,4.0781,4.0791,4.0806,4.0821,4.084,4.0849,4.087,4.0882,4.0899,4.0901,4.0886,4.094,4.0919,4.0944,4.0944,4.0957,4.0956,4.1024,4.0962,4.0962,4.0962,4.0961,0,4.071,4.0739,4.0749,4.077,4.0804,4.0807,4.0839,4.0847,4.0862,4.0884,4.0879,4.09,4.0901,4.0923,4.0925,4.0957,4.0962,4.0965,4.0966,4.0967,4.0967,4.0976,4.0973,4.0963,4.0963,4.0963,4.0962,0,4.0754,4.0762,4.08,4.0818,4.0824,4.0848,4.0863,4.0883,4.0889,4.0918,4.0924,4.0933,4.0958,4.0963,4.0991,4.0993,4.1032,4.1028,4.1027,4.1027,4.1052,4.105,4.1129,4.114,4.1069,4.107,4.1071,0,4.0787,4.081,4.0832,4.0848,4.0859,4.0883,4.0899,4.0902,4.0918,4.094,4.0957,4.0982,4.1002,4.1042,4.1051,4.1073,4.1071,4.1097,4.1074,4.1075,4.1073,4.1073,4.1076,4.1102,4.1103,4.1103,4.1104,0,4.0844,4.0847,4.087,4.0895,4.0914,4.0933,4.0952,4.0964,4.097,4.0988,4.1015,4.1031,4.1061,4.1086,4.1108,4.1117,4.1112,4.1111,4.1118,4.112,4.1119,4.1122,4.1041,4.1109,4.1109,4.1108,4.1108,4.1108,4.0884,4.0906,4.0925,4.0952,4.0966,4.0984,4.1004,4.1014,4.1036,4.1063,4.1063,4.1092,4.1109,4.1139,4.1149,4.1172,4.1163,4.1173,4.1176,4.1179,4.1183,4.1115,4.1176,4.1175,4.1175,4.1175,4.1175,0,4.0943,4.0956,4.098,4.1007,4.1028,4.1022,4.1042,4.106,4.1086,4.1103,4.1124,4.1155,4.1179,4.119,4.1214,4.123,4.1228,4.1236,4.1236,4.1238,4.1188,4.118,4.1238,4.1238,4.1237,4.1237,4.1237,4.1237,4.0976,4.1012,4.1018,4.1061,4.1073,4.1104,4.1116,4.1132,4.1146,4.1181,4.1202,4.121,4.1224,4.125,4.1272,4.1274,4.1284,4.1294,4.1295,4.1248,4.1242,4.1236,4.1229,4.1295,4.1295,4.1344,4.1345,4.1345]}]]